Terminal Aerodrome Forecast
Issued by NWS

Home | Current Version | Previous Version | Text Only | Print | Product List | Glossary On
Versions: 1 2 3 4 5 6 7 8 9 10 11 12 13 14
349
FTUS45 KRIW 261730
TAFWRL
TAF
KWRL 261730Z 2618/2718 35006KT P6SM SCT060
     FM262000 01007KT P6SM VCTS SCT060CB BKN100
     FM270500 17007KT P6SM SCT100=

USA.gov is the U.S. government's official web portal to all federal, state and local government web resources and services.